Location: Mainz-Finthen
(49.9906°N, 8.1713°E)
Time: 19:20:21
(UTC+00:00)

KKS-1 - Visible Passes

Search period start: 07 December 2021 00:00
Search period end: 17 December 2021 00:00
Orbit: 637 x 649 km, 98.2° (Epoch: 07 December)

Date Brightness Start Highest point End Pass type
(mag) Time Alt. Az. Time Alt. Az. Time Alt. Az.
08 Dec ? 06:22:11 10° E 06:24:25 14° NE 06:26:42 10° NNE visible
12 Dec ? 06:22:43 10° E 06:24:57 14° NE 06:27:13 10° NNE visible
16 Dec ? 06:23:14 10° E 06:25:29 14° NE 06:27:43 10° NNE visible
